Pleasant Lake, Indiana
Current Conditions -  °F | °C
As of 4:55 PM on Saturday 25 Oct 2014 (Local Time) from KANQ Reporting Station
NA  
Wind Chill: 68°   Ceiling: NA
Heat Index: 68°   Visibility: NA
Dew Point: 34°   Wind: 15mph
Humidity: 28%   Direction: 290°WNW
Pressure: 29.84"   Gusts: NA
Location:  41.58°N, 85.02°W
Report Text: KANQ 252055Z AUTO 29013KT 20/01 A2984 RMK
Loading
Personal Weather Stations






























Interactive Weather Map
Tropical Storm Tracking
New forecast layout! Learn more

10-Day Weather Forecast

Advertisements
Track Severe Weather on mobile